Wind_Speed
11 9 8 8 8 10 11 8 8 10 10 10 12 9 8 8 8 4 15 15 14 13 11 11 11 10 10 12 12 13 12 12 12 12 12 12 12 11 13 14 14 14 14 14 12 13 10 10 11
10 9 8 13 6 12 11 8 8 5 5 8 9 8 6 2 9 15 16 15 14 12 11 11 11 12 12 12 12 13 12 13 13 13 14 14 14 15 16 16 16 16 16 14 14 15 18 17 13
10 10 12 7 6 12 12 8 6 4 6 7 5 7 5 10 15 16 15 14 14 14 12 11 12 12 13 14 13 13 12 13 13 14 16 15 15 17 17 17 18 19 17 16 16 17 19 18 16
10 10 11 8 12 10 10 9 7 5 4 7 5 3 8 15 14 15 13 12 12 13 13 12 12 12 13 14 15 13 13 14 15 16 16 17 16 16 17 17 17 17 17 17 17 17 18 17 16
8 8 7 10 12 12 11 8 6 3 3 5 7 4 10 15 14 15 12 10 9 9 10 10 10 12 13 13 13 13 15 16 17 18 17 18 17 17 17 18 17 18 18 19 19 17 16 16 15
8 11 9 12 12 11 8 7 5 4 5 5 5 7 11 11 12 12 13 11 10 9 9 10 11 12 13 13 13 14 16 16 18 19 18 18 17 17 17 19 19 19 18 17 16 16 15 15 15
11 9 12 11 11 8 5 6 6 6 7 6 9 8 5 10 11 11 11 11 10 11 12 12 12 12 13 12 14 14 15 16 17 18 18 18 19 20 23 23 21 18 15 15 13 14 14 15 15
12 10 9 9 8 7 5 6 8 7 6 8 10 1 4 4 9 9 9 9 11 12 13 13 13 13 13 14 13 15 16 17 18 18 18 19 20 22 23 20 18 17 17 15 11 13 13 13 13
12 9 10 9 5 5 5 5 6 8 7 6 3 6 3 4 7 7 8 8 10 13 13 13 12 12 13 13 13 14 16 17 17 17 17 19 21 21 18 15 15 13 13 12 10 10 11 10 9
10 7 6 5 4 5 8 6 7 7 7 5 4 5 5 7 6 9 9 9 9 10 13 15 15 14 14 14 16 17 18 18 18 18 18 19 21 22 19 14 11 9 8 10 9 9 7 5 3
7 6 7 5 6 9 9 7 8 7 3 1 5 3 6 6 8 5 8 11 11 12 12 12 14 17 17 17 20 21 21 20 19 18 18 19 22 21 16 12 9 7 5 4 4 2 1 3 6
6 3 6 7 8 9 9 7 6 6 4 5 1 8 4 6 7 8 7 9 11 9 10 12 14 17 19 21 22 21 19 18 17 17 17 18 19 17 14 11 9 5 3 1 1 2 2 2 3
6 4 5 7 8 8 6 4 2 2 2 4 4 3 7 7 5 7 9 9 8 10 11 11 12 14 18 23 26 25 22 20 18 17 17 17 17 16 13 11 8 6 6 4 3 3 1 1 2
3 3 4 6 5 4 4 2 1 2 2 1 2 1 4 5 7 5 8 12 8 6 8 11 13 15 19 23 24 24 24 22 20 18 16 16 15 14 13 12 11 9 7 8 9 4 3 4 5
5 5 4 5 4 3 3 3 2 3 2 3 1 1 3 7 9 11 9 9 9 9 8 9 13 17 20 22 23 22 21 21 20 19 18 18 18 16 14 13 13 12 9 6 6 9 8 8 8
2 3 5 3 3 3 4 1 5 6 3 6 4 2 2 7 12 11 12 11 9 9 11 12 12 15 20 22 22 20 20 19 19 19 18 18 17 17 14 14 14 15 11 9 7 9 10 11 13
6 4 5 5 6 6 7 7 7 10 7 10 9 5 3 9 15 14 12 12 12 9 9 12 13 15 16 19 20 19 19 18 17 16 16 17 18 16 17 17 14 13 12 13 12 12 13 16 15
3 5 5 8 9 8 11 13 10 13 11 9 13 12 8 7 12 15 15 14 13 13 11 10 12 14 17 18 18 19 19 19 20 19 18 19 20 18 16 17 16 16 17 18 19 19 18 17 18
2 5 5 7 8 10 13 16 14 15 14 15 16 17 13 9 15 20 17 16 15 14 13 12 11 12 14 16 19 20 19 19 19 18 18 19 21 19 18 19 21 23 24 24 23 24 21 19 21
2 4 6 5 3 7 11 16 13 11 15 15 16 18 18 16 18 22 21 19 17 14 14 13 11 12 11 13 15 18 20 22 22 22 22 20 21 22 22 22 22 24 25 26 27 28 26 24 26
3 4 7 9 11 11 14 2 3 2 6 8 16 19 20 22 22 21 19 22 20 20 16 12 10 9 10 12 14 18 21 23 23 25 23 25 22 22 23 24 26 26 27 28 29 29 33 26 14
2 5 8 10 11 11 10 5 1 7 6 8 3 8 19 23 25 24 23 20 23 19 16 16 17 14 11 14 16 15 15 18 20 21 24 26 26 27 27 29 29 32 30 33 31 29 34 21 11
5 9 10 10 8 5 5 8 6 6 12 7 7 13 11 20 25 26 25 26 24 24 21 17 17 18 18 16 15 15 16 16 17 23 24 26 29 32 33 33 32 34 37 32 28 28 20 12 20
8 8 10 5 5 4 9 9 2 13 16 11 13 16 9 14 20 24 25 25 28 28 28 26 25 24 25 20 16 17 18 18 21 25 26 27 30 31 33 35 36 35 34 27 18 19 22 18 21
5 7 7 4 2 5 6 9 9 13 17 18 21 19 13 12 14 22 27 28 32 29 34 34 30 26 30 25 26 23 24 24 26 25 25 28 32 34 37 37 40 40 30 19 17 18 22 24 20
8 8 10 7 8 14 6 5 9 14 19 20 22 20 16 12 12 14 17 26 31 30 27 30 26 26 27 30 31 29 29 27 29 28 27 31 32 35 39 38 35 33 19 16 19 24 22 19 16
4 9 7 14 16 12 7 10 15 4 12 20 24 23 21 18 15 15 16 18 23 24 21 22 26 30 29 10 36 31 34 34 34 33 29 10 15 32 31 41 23 16 19 17 20 19 17 17 13
9 10 11 8 7 11 17 18 15 13 21 22 21 22 28 26 20 17 16 14 17 20 21 18 22 32 32 26 29 32 30 27 34 17 16 10 10 5 11 22 20 14 18 16 14 14 14 13 14
8 10 9 12 12 13 13 13 21 21 15 22 23 24 30 30 25 21 18 16 16 17 18 21 22 25 30 31 30 16 23 15 9 15 11 6 1 6 9 8 17 20 17 14 13 13 12 12 13
11 13 13 17 15 17 16 25 7 12 22 25 25 31 33 32 27 22 21 17 15 17 17 16 19 24 25 25 22 19 11 13 11 17 16 14 15 18 18 15 13 12 11 11 11 11 11 12 12
Wind_Direction
107 129 113 86 79 104 88 85 100 125 130 132 136 118 139 152 177 181 163 152 146 142 130 142 146 143 147 147 138 134 137 136 131 131 124 118 121 115 111 109 107 104 96 91 85 82 91 123 143
97 109 93 94 133 100 81 87 107 128 164 155 111 118 120 118 152 145 153 152 147 141 146 154 150 150 149 145 139 141 142 136 133 131 124 129 125 119 115 114 110 105 101 99 94 89 90 101 124
97 106 102 93 65 75 99 96 100 85 111 153 115 131 139 138 142 149 152 151 149 149 159 160 157 158 151 147 146 145 142 132 134 133 132 131 127 123 122 117 112 110 103 98 94 90 89 96 106
108 103 95 87 92 88 100 107 99 88 106 126 117 129 147 147 149 148 150 153 155 157 162 166 163 158 153 152 151 147 137 136 140 137 134 132 128 127 126 121 114 109 108 103 95 90 89 91 95
132 106 106 100 100 97 107 107 112 105 134 131 119 129 154 154 151 148 153 154 160 162 163 166 159 152 154 154 146 145 142 144 143 136 137 132 132 130 131 124 118 115 114 107 101 96 98 100 103
124 105 118 113 108 106 111 97 89 110 121 129 113 138 160 163 157 156 159 164 172 170 165 166 165 159 157 160 146 152 151 147 143 139 138 137 132 131 134 128 124 119 116 110 103 95 96 92 91
130 110 110 120 119 115 130 109 98 113 120 129 129 133 168 176 172 165 174 175 177 176 174 169 165 166 160 157 160 156 150 147 142 142 143 142 135 133 129 125 124 121 126 121 109 112 108 105 105
134 108 112 115 122 128 129 100 90 105 116 104 120 323 153 183 172 169 187 189 184 181 180 171 169 169 166 167 165 160 153 153 149 148 148 145 137 137 134 128 124 115 113 111 109 116 113 112 108
133 115 112 116 122 151 118 85 73 87 67 99 100 143 131 134 164 178 191 197 187 180 173 168 168 168 171 170 170 162 156 155 153 151 151 150 148 146 143 138 129 123 112 98 93 127 125 115 104
113 116 116 119 115 132 142 123 79 90 89 62 94 138 100 126 158 158 164 175 181 184 176 172 170 173 174 176 171 167 163 163 160 158 156 157 157 157 154 146 134 127 124 92 90 106 134 160 105
106 105 121 112 106 125 132 119 102 118 61 120 110 102 116 131 138 144 164 170 177 184 182 181 182 180 178 180 175 174 173 168 168 166 163 162 161 163 162 160 149 141 137 97 96 107 183 157 150
90 113 113 144 113 118 121 113 109 108 74 41 153 134 137 150 151 150 164 169 170 182 191 193 193 189 185 180 179 178 176 174 173 173 170 171 172 173 178 182 183 187 198 60 77 346 305 193 207
97 91 117 129 120 128 120 110 149 165 58 44 25 148 162 173 174 171 166 167 181 176 181 192 195 198 191 182 179 178 178 182 183 182 183 184 185 187 190 196 206 217 240 251 290 325 266 219 290
96 82 105 144 128 150 150 109 79 292 277 308 16 38 184 194 180 191 179 164 160 177 182 185 184 184 184 184 185 182 182 184 187 189 192 195 202 204 208 212 221 239 265 271 261 241 216 232 255
131 120 106 149 173 204 189 243 217 276 263 221 209 85 226 202 197 170 175 178 173 161 169 183 179 174 179 184 186 188 189 191 191 195 197 201 204 210 222 228 245 259 275 257 235 215 247 246 262
165 168 188 210 185 233 210 245 280 289 245 218 196 136 191 209 199 196 176 164 168 168 166 168 177 180 182 184 190 196 197 198 201 202 204 204 207 216 226 232 257 249 240 238 231 234 244 254 262
229 241 215 238 226 240 228 270 282 279 294 230 233 228 175 203 207 201 199 181 164 173 168 172 176 183 191 198 199 200 202 208 214 215 216 219 216 227 241 246 248 223 236 243 255 264 260 266 277
252 207 252 261 264 260 268 279 285 258 265 243 223 237 232 214 226 211 197 192 184 175 174 178 178 188 195 198 208 215 214 215 215 215 224 230 235 243 248 245 246 241 245 253 256 260 261 266 273
239 227 294 303 265 274 279 284 281 259 240 235 228 224 227 207 207 208 206 198 192 191 183 171 183 192 202 211 212 213 221 228 229 234 237 238 238 245 246 251 250 250 253 259 261 259 262 259 261
324 287 336 334 287 297 308 298 273 249 249 237 238 229 224 202 208 208 213 212 209 202 195 185 184 201 204 208 216 219 221 227 233 238 241 243 245 248 253 253 253 258 262 260 261 264 266 265 251
357 344 340 323 307 295 330 316 85 273 295 272 238 234 227 220 218 218 226 228 218 207 200 209 212 219 219 218 218 219 222 227 233 239 242 244 245 250 252 256 256 259 257 259 261 260 255 252 228
4 345 329 322 323 342 326 307 311 357 328 351 317 279 235 229 226 222 226 230 223 213 227 231 230 227 238 232 231 230 231 234 240 243 242 244 245 251 252 253 250 258 256 258 277 255 251 225 256
312 327 323 323 325 322 59 281 39 8 11 345 315 318 266 234 231 230 228 234 227 223 223 229 239 233 231 230 236 236 235 240 241 242 247 246 248 249 251 256 262 259 275 270 255 274 280 302 283
316 319 308 325 332 214 16 344 282 5 345 337 327 323 289 242 236 234 234 235 238 229 221 221 221 231 228 221 228 243 246 247 249 247 246 246 249 254 257 261 266 270 272 253 241 270 289 289 276
331 304 300 299 232 27 3 316 310 342 346 344 339 331 302 267 261 238 232 232 241 236 234 234 233 232 239 221 219 236 247 249 251 258 258 255 256 257 260 264 269 271 273 265 231 268 280 286 290
297 298 304 308 325 330 314 283 340 335 331 341 344 344 328 293 272 245 229 237 239 235 238 236 225 231 233 249 240 238 249 253 261 266 273 273 270 273 272 268 276 267 258 249 261 275 283 286 276
272 283 286 291 286 271 312 314 309 307 345 338 328 330 339 312 284 269 260 254 242 228 233 230 231 234 225 250 249 239 244 250 257 261 258 305 287 262 258 260 263 269 265 244 265 270 271 265 258
250 274 277 238 285 296 305 305 299 308 307 316 328 327 328 326 290 271 269 250 238 236 232 232 261 220 243 239 241 242 244 254 267 303 346 5 268 257 234 250 210 231 263 257 257 258 259 261 259
269 261 255 282 281 302 299 305 312 304 306 317 320 318 318 322 315 267 259 254 248 245 245 238 241 238 242 254 259 258 314 305 338 267 270 287 165 269 253 237 251 258 250 237 244 247 249 251 254
250 262 264 282 290 286 294 290 312 305 303 313 310 305 302 303 312 282 254 261 263 253 263 266 251 243 247 243 253 255 269 267 294 277 245 268 272 276 277 271 235 225 234 248 249 251 254 260 267
Height
3179 3180 3181 3181 3187 3183 3185 3189 3189 3189 3189 3187 3188 3189 3192 3190 3193 3196 3192 3193 3194 3194 3196 3197 3199 3200 3200 3201 3203 3203 3204 3205 3207 3207 3208 3208 3210 3210 3211 3211 3212 3212 3212 3212 3212 3211 3210 3210 3212
3180 3182 3182 3182 3184 3182 3188 3190 3190 3190 3188 3188 3188 3189 3190 3190 3189 3190 3192 3193 3194 3196 3197 3198 3199 3200 3201 3202 3204 3204 3205 3207 3207 3208 3210 3211 3212 3213 3213 3214 3214 3214 3214 3214 3214 3213 3212 3212 3214
3182 3183 3184 3185 3184 3184 3189 3190 3189 3189 3188 3188 3189 3189 3189 3190 3190 3191 3193 3194 3196 3197 3198 3198 3200 3201 3202 3203 3204 3205 3207 3208 3208 3211 3211 3213 3214 3215 3216 3217 3217 3217 3218 3217 3216 3216 3215 3216 3217
3184 3185 3187 3187 3188 3189 3190 3191 3190 3189 3189 3189 3189 3189 3190 3189 3191 3193 3194 3195 3197 3197 3197 3198 3201 3202 3203 3204 3205 3207 3208 3209 3210 3212 3214 3216 3217 3218 3219 3219 3220 3221 3221 3221 3220 3219 3219 3219 3220
3185 3185 3189 3189 3190 3190 3191 3191 3190 3190 3189 3189 3190 3190 3190 3190 3191 3193 3195 3196 3197 3198 3199 3200 3202 3203 3204 3205 3206 3209 3210 3211 3213 3215 3217 3218 3219 3220 3222 3222 3223 3223 3224 3224 3224 3224 3223 3223 3223
3187 3187 3189 3189 3192 3192 3192 3191 3191 3191 3190 3189 3190 3190 3191 3191 3192 3194 3195 3197 3197 3199 3200 3201 3203 3202 3205 3206 3209 3210 3212 3213 3215 3217 3219 3220 3222 3223 3224 3224 3225 3226 3226 3226 3227 3227 3226 3226 3226
3187 3190 3191 3191 3193 3193 3193 3192 3194 3192 3191 3191 3190 3193 3192 3192 3193 3194 3195 3197 3199 3199 3199 3201 3203 3205 3207 3209 3210 3212 3214 3215 3218 3220 3221 3222 3224 3225 3227 3227 3228 3228 3229 3229 3229 3229 3230 3229 3229
3188 3192 3193 3193 3194 3195 3193 3193 3193 3195 3194 3191 3192 3193 3193 3193 3193 3194 3195 3197 3198 3199 3200 3202 3204 3206 3208 3209 3211 3214 3216 3217 3219 3221 3223 3225 3227 3229 3229 3230 3230 3230 3230 3231 3231 3231 3232 3232 3232
3190 3193 3193 3194 3194 3194 3194 3194 3194 3194 3193 3192 3192 3193 3193 3193 3194 3194 3196 3198 3199 3199 3201 3203 3205 3207 3209 3211 3214 3216 3218 3220 3222 3224 3226 3228 3229 3231 3232 3232 3232 3232 3233 3233 3233 3233 3234 3234 3234
3192 3194 3195 3195 3194 3196 3195 3197 3196 3196 3195 3195 3193 3192 3193 3193 3195 3195 3196 3198 3199 3200 3201 3202 3205 3207 3209 3211 3214 3216 3218 3220 3222 3224 3226 3229 3231 3232 3232 3234 3235 3235 3235 3235 3235 3236 3236 3235 3235
3194 3196 3195 3195 3195 3196 3196 3198 3197 3199 3199 3198 3195 3195 3194 3195 3195 3197 3197 3198 3199 3200 3202 3204 3205 3206 3208 3211 3213 3215 3218 3220 3223 3225 3227 3230 3231 3233 3234 3235 3236 3236 3237 3237 3237 3237 3237 3236 3236
3198 3195 3196 3195 3196 3197 3198 3198 3199 3200 3200 3198 3197 3195 3196 3196 3196 3197 3199 3199 3199 3201 3203 3204 3205 3206 3206 3209 3213 3217 3220 3222 3224 3226 3228 3230 3232 3234 3235 3235 3236 3237 3237 3238 3237 3237 3237 3236 3237
3197 3197 3197 3197 3198 3199 3199 3199 3200 3199 3198 3198 3197 3196 3196 3197 3198 3198 3198 3200 3201 3201 3201 3203 3206 3208 3209 3209 3210 3214 3218 3221 3223 3226 3228 3230 3232 3233 3234 3235 3236 3237 3238 3238 3238 3237 3237 3237 3237
3197 3198 3198 3198 3199 3200 3201 3200 3199 3199 3198 3197 3197 3196 3196 3198 3198 3199 3199 3199 3200 3202 3202 3203 3204 3206 3209 3211 3212 3215 3217 3219 3222 3225 3228 3230 3232 3234 3235 3235 3236 3236 3237 3236 3237 3237 3237 3237 3237
3198 3200 3200 3200 3200 3201 3200 3201 3200 3199 3197 3197 3197 3196 3196 3197 3198 3198 3199 3200 3200 3200 3202 3204 3205 3206 3209 3212 3214 3217 3219 3221 3222 3224 3226 3228 3230 3232 3234 3235 3235 3236 3235 3235 3234 3235 3236 3237 3237
3200 3200 3199 3200 3199 3199 3200 3200 3200 3198 3197 3197 3196 3196 3196 3197 3198 3199 3198 3199 3200 3201 3201 3202 3205 3208 3209 3211 3214 3217 3220 3222 3223 3224 3226 3228 3230 3231 3231 3233 3233 3233 3234 3234 3234 3234 3234 3234 3235
3198 3197 3199 3200 3199 3199 3199 3199 3198 3196 3196 3196 3195 3195 3195 3196 3197 3198 3198 3199 3199 3201 3202 3203 3205 3207 3211 3213 3215 3217 3220 3222 3224 3226 3227 3228 3229 3230 3231 3231 3230 3231 3232 3231 3231 3231 3231 3231 3231
3196 3197 3198 3198 3199 3197 3197 3196 3197 3194 3194 3194 3195 3195 3195 3195 3196 3197 3198 3198 3199 3199 3201 3203 3204 3206 3208 3211 3214 3217 3219 3220 3221 3223 3225 3226 3228 3228 3229 3229 3230 3229 3228 3228 3228 3228 3227 3227 3228
3199 3198 3198 3197 3197 3196 3195 3193 3194 3193 3192 3193 3193 3193 3193 3194 3196 3196 3197 3197 3198 3198 3200 3201 3203 3205 3207 3209 3210 3213 3216 3219 3221 3222 3223 3223 3224 3225 3226 3227 3226 3226 3225 3225 3225 3222 3224 3223 3223
3200 3199 3196 3196 3195 3194 3192 3189 3189 3190 3189 3190 3192 3192 3192 3193 3194 3194 3194 3195 3196 3198 3198 3199 3201 3202 3205 3207 3209 3210 3213 3215 3217 3218 3219 3220 3221 3222 3223 3223 3222 3221 3220 3220 3220 3220 3220 3220 3219
3200 3198 3197 3197 3194 3191 3188 3186 3186 3186 3186 3186 3187 3189 3189 3191 3191 3192 3192 3193 3195 3195 3197 3199 3200 3201 3202 3203 3205 3206 3208 3210 3211 3213 3215 3216 3217 3218 3218 3218 3217 3216 3215 3214 3215 3213 3212 3212 3210
3198 3198 3198 3196 3194 3189 3189 3184 3185 3186 3185 3183 3182 3182 3184 3186 3187 3188 3189 3190 3191 3194 3195 3196 3197 3199 3200 3201 3201 3203 3204 3206 3208 3208 3209 3210 3211 3212 3212 3211 3210 3209 3210 3210 3209 3202 3205 3203 3208
3200 3197 3196 3194 3192 3189 3189 3186 3181 3183 3185 3183 3181 3179 3179 3179 3181 3183 3185 3186 3188 3190 3191 3192 3193 3195 3196 3197 3199 3200 3201 3201 3202 3201 3203 3204 3205 3205 3204 3204 3205 3205 3203 3204 3203 3204 3199 3199 3206
3198 3197 3195 3193 3191 3182 3190 3191 3180 3183 3184 3183 3181 3177 3175 3176 3177 3179 3182 3183 3183 3184 3186 3187 3188 3190 3191 3192 3194 3196 3197 3198 3197 3196 3198 3198 3197 3197 3198 3198 3198 3198 3199 3196 3197 3198 3200 3198 3200
3198 3197 3188 3187 3181 3180 3188 3188 3183 3183 3181 3179 3176 3173 3172 3171 3172 3172 3174 3175 3174 3178 3180 3180 3181 3184 3184 3184 3186 3190 3191 3191 3191 3193 3194 3194 3193 3192 3191 3192 3191 3192 3191 3190 3192 3193 3193 3192 3190
3198 3198 3193 3189 3182 3183 3185 3183 3181 3181 3178 3176 3173 3171 3168 3168 3168 3167 3169 3167 3167 3170 3172 3173 3176 3177 3178 3180 3179 3182 3184 3185 3188 3188 3188 3186 3185 3184 3183 3184 3182 3183 3183 3187 3188 3188 3187 3186 3186
3195 3195 3193 3191 3184 3183 3178 3180 3180 3178 3178 3175 3171 3168 3166 3165 3164 3163 3162 3161 3162 3165 3168 3170 3170 3170 3171 3170 3172 3175 3177 3179 3180 3180 3181 3177 3174 3170 3171 3172 3175 3175 3178 3182 3182 3183 3182 3182 3183
3193 3192 3191 3186 3185 3180 3176 3177 3174 3176 3175 3174 3172 3167 3163 3161 3160 3159 3158 3157 3158 3160 3163 3164 3164 3159 3165 3166 3168 3169 3170 3173 3170 3168 3170 3167 3168 3164 3163 3164 3171 3171 3175 3176 3178 3178 3178 3177 3179
3189 3189 3189 3188 3186 3180 3175 3172 3173 3174 3173 3170 3168 3163 3160 3158 3156 3154 3153 3153 3154 3155 3157 3158 3158 3158 3161 3162 3163 3164 3163 3164 3167 3167 3169 3167 3165 3168 3168 3167 3168 3169 3170 3171 3172 3173 3174 3174 3175
3186 3185 3184 3181 3180 3177 3176 3172 3171 3171 3170 3167 3164 3157 3155 3153 3151 3149 3149 3148 3148 3149 3150 3151 3151 3153 3155 3157 3159 3160 3161 3162 3163 3162 3164 3164 3165 3165 3164 3163 3164 3165 3166 3168 3169 3169 3170 3170 3170